Location: Balsareny
(41.8670°N, 1.8830°E)
Time: 01:04:57
(UTC+01:00)

ISS - Pass Details

Date: 01 December 2021
Orbit: 413 x 422 km, 51.6° (Epoch: 25 January)

Event Time Altitude Azimuth Distance (km) Brightness Sun altitude
Rises 18:31:50 0° 305° (NW) 2,385 0.6 -12.7°
Reaches altitude 10° 18:34:26 10° 325° (NW) 1,516 -0.7 -13.1°
Maximum altitude 18:36:50 18° 10° (N) 1,130 -1.8 -13.6°
Enters shadow 18:37:34 17° 27° (NNE) 1,171 -1.9 -13.7°
